SCP
1 1 1 1 1 1 1 1 1 1 1 1 1 1 1 1 1 1 1 1 1 1 1 1 0 0 0 0 0 0 0 0 0 0 0 0 0 0 1 1 1 1 1
1 1 1 2 1 1 1 1 1 1 1 1 1 1 1 1 1 1 1 1 1 1 1 1 1 0 0 0 0 0 0 0 0 0 0 0 0 0 1 1 1 1 1
2 2 2 2 2 1 1 1 1 1 1 1 1 1 1 1 1 1 1 1 1 1 1 1 0 0 0 0 0 0 0 0 0 0 0 0 0 0 1 1 1 1 1
3 2 2 2 2 1 1 1 1 1 1 1 1 1 1 1 1 1 1 1 1 1 0 0 0 0 0 0 0 0 0 0 0 0 0 0 0 0 1 1 1 1 1
3 3 3 2 2 2 1 1 1 1 1 1 1 1 1 1 1 1 1 0 0 0 0 0 0 0 0 0 0 0 0 0 0 0 0 0 0 0 0 0 1 1 1
3 3 3 3 2 2 1 1 1 1 1 1 1 1 1 1 0 0 0 0 0 0 0 0 0 0 0 0 0 0 0 0 0 0 0 0 0 1 1 1 1 1 1
4 3 3 2 2 2 2 2 1 1 1 1 1 1 1 1 0 0 0 0 0 0 0 0 0 0 0 0 0 0 0 0 0 0 0 0 1 1 1 1 1 1 1
4 4 3 2 2 2 2 1 1 1 1 1 1 1 1 1 1 1 0 0 0 0 0 0 0 0 0 0 0 0 0 0 0 0 0 0 1 1 1 1 1 1 1
4 4 3 2 2 2 2 1 1 1 1 1 1 1 1 1 1 1 0 0 0 0 0 0 0 0 0 0 0 0 0 0 0 0 0 1 1 1 1 1 1 1 1
3 3 3 2 2 2 1 1 1 1 1 1 1 1 1 1 1 1 0 0 0 0 0 0 0 0 0 0 0 0 0 0 0 0 0 1 1 1 1 1 1 1 1
3 3 3 2 2 2 1 1 1 1 1 1 1 1 1 1 1 0 0 0 1 0 0 0 0 0 0 0 0 0 0 0 0 0 0 1 1 2 2 2 2 2 1
3 3 2 2 2 2 2 1 1 1 1 1 1 1 1 1 0 0 0 1 1 1 1 0 0 0 0 0 0 0 0 0 0 0 1 1 2 2 2 2 2 2 2
3 3 2 2 2 2 2 1 1 1 1 1 1 1 1 0 0 0 0 0 1 1 1 0 0 0 0 0 0 0 0 0 0 0 1 2 2 2 2 2 2 2 2
3 3 2 2 2 2 2 1 1 1 1 1 1 1 0 0 0 0 0 0 1 1 1 0 0 0 0 0 0 0 0 0 0 1 1 2 2 3 3 3 3 2 2
4 3 3 2 2 2 2 1 1 1 1 1 1 0 0 0 0 0 0 1 1 1 1 0 0 0 0 0 0 0 0 1 1 1 2 2 2 3 3 3 3 2 2
4 4 3 3 2 2 2 1 1 1 1 1 1 1 1 1 1 1 1 1 1 1 1 1 0 0 0 0 1 1 1 1 1 1 2 2 2 2 3 3 3 3 3
4 4 4 3 3 2 2 2 1 1 1 1 1 1 1 1 1 1 1 1 1 1 1 1 1 1 1 1 1 1 1 1 1 1 1 2 2 2 3 3 3 3 3
5 4 4 4 3 3 2 2 2 1 1 1 1 1 1 1 1 1 1 1 1 1 1 1 1 1 1 1 1 1 1 1 1 1 1 1 2 2 2 3 3 3 3
5 5 5 5 4 4 3 3 2 2 1 1 1 1 1 1 1 1 1 1 1 1 1 1 1 1 1 1 1 0 0 0 0 1 1 1 1 2 2 2 3 3 4
6 6 7 7 6 5 4 3 3 2 2 2 2 2 2 2 2 2 2 2 2 1 1 1 1 1 0 0 1 1 0 0 0 0 1 1 1 1 1 2 3 3 3
6 7 8 7 7 6 5 4 3 3 3 3 3 3 3 3 3 3 3 2 2 1 1 1 1 1 1 1 1 1 1 1 0 0 0 1 1 1 1 2 2 2 2
6 6 7 6 6 5 5 4 3 3 3 3 3 2 2 3 3 3 3 2 1 1 1 1 1 1 1 1 1 1 1 1 0 0 0 0 0 1 1 2 2 2 1
6 6 6 6 5 4 3 3 3 3 2 2 2 1 1 1 2 2 2 1 1 1 0 0 1 1 1 1 1 1 1 1 0 0 0 0 0 0 1 1 1 1 1
6 6 6 6 5 4 3 3 3 2 2 1 1 1 1 1 1 1 1 1 0 0 0 0 0 0 0 0 0 1 1 1 1 0 0 0 0 0 0 0 0 0 0
8 7 6 5 5 4 3 3 3 2 1 1 1 1 1 1 1 0 0 0 0 0 0 0 0 0 0 0 0 0 0 0 1 1 0 0 0 0 0 0 0 0 0
10 8 6 5 5 4 4 3 2 2 1 1 1 1 0 0 0 0 0 0 0 0 0 0 0 0 0 0 0 0 0 0 0 0 0 0 0 0 0 0 0 0 0
Wind_Speed
10 13 18 18 18 18 18 18 18 19 18 18 18 18 18 17 17 16 16 15 15 15 14 14 14 14 14 14 14 14 15 15 15 16 16 15 14 14 16 15 14 11 15
15 15 19 19 19 19 18 18 18 18 18 18 17 17 17 16 16 15 15 14 14 14 14 14 13 13 13 13 13 13 13 12 12 14 14 13 13 13 14 14 13 9 13
18 15 18 19 19 19 19 19 18 18 18 17 17 17 16 16 15 14 14 13 13 13 13 13 12 12 12 12 11 11 11 10 9 11 11 6 8 13 14 14 14 13 13
19 15 16 20 20 20 19 19 19 19 18 18 17 17 16 15 14 13 13 13 12 12 12 12 11 11 10 10 9 9 9 8 6 7 4 3 6 13 14 14 13 12 12
16 14 16 22 20 20 20 20 19 19 18 18 17 16 16 15 14 13 13 12 12 11 11 11 10 9 9 8 8 7 6 5 5 4 4 4 5 12 13 13 12 11 11
15 14 17 21 20 20 20 20 19 19 18 18 17 16 15 14 13 12 12 12 11 11 10 10 9 8 7 6 6 5 5 5 4 3 4 4 4 11 13 12 11 11 10
14 12 16 20 20 20 20 19 19 19 18 17 16 16 15 13 12 12 12 11 11 10 9 9 7 6 5 4 4 3 3 4 3 2 3 4 5 11 13 12 11 10 10
15 13 13 19 21 20 19 19 18 18 17 16 16 15 14 13 12 12 11 10 10 9 9 8 6 5 4 2 1 0 1 3 4 3 4 5 8 11 13 12 11 10 10
13 13 11 13 15 18 18 18 18 17 17 16 16 15 14 14 13 12 11 10 10 9 8 7 7 5 4 3 3 2 1 1 2 2 5 5 9 12 13 13 12 11 10
11 12 11 11 10 10 12 18 19 18 17 17 16 16 15 14 13 13 11 10 10 9 9 8 7 6 5 5 5 5 3 1 2 3 3 6 12 13 13 13 13 12 11
12 10 10 10 9 9 9 13 15 17 16 16 14 16 13 7 7 8 10 11 11 10 9 9 8 7 7 6 8 8 5 1 2 3 4 10 14 14 14 14 13 13 12
13 11 9 10 10 9 9 8 6 7 8 7 6 8 5 5 5 7 9 12 12 11 10 10 9 8 6 3 6 7 2 3 3 3 5 12 15 15 15 14 14 14 13
13 12 11 10 10 9 6 6 4 4 4 5 6 7 5 4 3 4 3 5 6 7 5 5 5 3 3 3 3 3 3 3 3 3 6 13 15 16 15 15 15 14 14
11 11 11 11 9 8 7 6 5 5 4 4 5 6 5 3 3 3 3 3 3 2 3 3 2 3 3 4 3 3 3 3 3 3 5 14 15 16 16 16 16 15 15
10 10 11 11 11 9 8 6 7 5 6 5 5 6 6 4 4 4 3 3 3 3 3 3 3 3 3 3 3 3 3 3 3 3 3 11 13 14 15 16 16 16 15
8 9 10 10 9 9 8 6 6 6 5 5 5 6 7 5 4 5 4 4 4 3 3 3 3 2 2 1 1 0 0 1 1 2 2 5 9 11 12 13 15 15 15
7 8 8 9 9 9 8 7 6 5 5 5 4 5 6 5 5 5 4 3 3 3 3 2 1 1 1 0 0 1 1 2 2 1 1 1 3 7 8 10 12 13 13
6 6 7 8 9 8 7 5 4 5 5 4 3 3 4 4 4 4 3 2 2 1 1 1 1 1 0 1 1 1 1 1 2 2 1 1 1 2 5 8 9 11 12
5 3 4 4 6 6 6 5 4 4 4 3 2 2 1 2 3 4 3 2 2 2 2 1 1 1 1 1 1 1 1 1 1 1 1 1 1 1 1 3 7 8 9
6 4 2 4 4 4 4 5 4 5 5 5 4 3 3 3 4 4 3 3 3 3 2 2 2 2 1 1 1 1 1 1 1 1 1 1 1 1 1 1 1 3 7
8 7 4 4 3 3 3 4 4 4 5 6 6 7 7 7 7 6 4 4 4 3 3 2 2 3 2 2 1 2 2 2 1 1 1 1 1 1 1 1 0 0 1
10 8 7 6 4 3 2 2 4 6 6 6 7 9 9 9 8 7 7 5 5 4 5 5 3 1 2 2 1 1 2 3 2 3 2 2 2 2 2 2 1 1 1
13 10 7 8 8 7 5 4 5 5 5 6 7 7 9 10 10 9 9 7 7 6 5 5 4 3 1 2 2 1 1 1 1 2 3 3 3 3 3 2 3 3 2
12 10 10 9 10 9 6 6 8 6 6 7 6 7 9 11 11 10 9 9 8 6 7 7 7 4 3 2 2 3 1 1 0 1 1 2 3 3 3 3 3 3 4
12 11 10 11 11 10 9 8 10 10 9 8 8 11 10 10 10 10 9 9 8 7 8 9 8 8 6 5 3 3 3 3 2 1 1 2 3 2 3 3 2 2 2
12 11 10 13 13 12 12 12 12 13 12 11 10 9 8 7 8 9 10 9 8 7 8 8 8 9 7 7 6 6 4 3 3 2 1 2 2 3 3 3 3 2 1
Wind_Direction
158 161 156 148 139 132 126 122 117 113 109 106 103 101 100 100 100 101 101 101 101 101 101 99 98 98 98 98 99 100 101 104 108 109 109 107 107 110 112 109 106 104 106
155 159 156 149 143 137 132 127 123 118 114 110 107 104 102 102 101 102 102 103 104 104 103 102 101 101 100 100 100 101 103 106 111 111 108 105 103 110 119 112 110 112 111
150 156 155 151 146 141 136 131 128 124 120 117 114 111 109 107 107 107 107 107 108 108 107 105 103 102 101 101 100 100 102 102 103 104 102 97 98 105 115 116 115 115 114
149 152 155 153 148 144 139 135 133 131 128 124 122 119 117 115 114 113 113 113 112 111 110 108 105 102 101 99 97 95 94 94 94 103 109 118 110 112 117 119 119 118 117
146 151 156 154 150 146 143 140 139 137 134 131 129 126 124 123 121 120 120 119 117 116 115 113 110 106 103 97 91 86 80 72 65 79 106 116 116 124 124 125 124 122 122
146 151 155 154 152 149 147 145 144 142 140 138 135 133 131 130 129 128 128 126 125 124 122 120 118 115 108 99 89 77 63 47 54 82 119 134 136 136 134 133 131 129 127
144 149 155 154 153 152 151 149 148 146 144 142 141 139 138 137 136 136 135 135 134 133 132 132 130 127 121 112 97 75 49 32 72 96 146 149 153 145 142 139 137 136 135
145 147 153 155 156 155 154 152 150 148 148 147 145 144 143 143 143 143 143 144 144 144 144 145 149 150 149 150 148 108 35 41 69 92 145 157 165 156 151 147 145 145 144
143 146 150 156 158 159 156 154 153 152 151 151 150 149 149 150 151 152 153 154 156 158 161 166 173 180 190 209 234 254 285 56 106 147 159 166 172 165 161 155 153 154 153
142 148 152 154 155 156 157 159 157 155 155 155 155 155 156 158 160 162 163 167 170 174 179 185 194 202 214 232 248 258 261 270 161 184 174 182 179 173 170 165 162 162 161
148 152 154 154 153 153 156 162 159 159 160 159 161 162 160 161 164 169 177 181 183 188 194 201 210 219 229 244 254 258 259 208 198 195 188 191 185 181 177 174 171 170 169
156 161 159 157 155 155 161 153 155 158 161 160 162 163 160 165 177 182 192 193 195 199 206 214 222 230 240 251 263 265 239 211 212 211 204 196 191 189 184 181 179 177 176
158 163 164 162 159 161 151 152 157 152 158 163 167 166 165 169 186 192 189 204 204 209 216 228 233 234 241 246 252 248 231 216 214 216 211 201 197 194 190 186 185 183 183
159 164 165 165 164 165 154 162 163 161 168 174 179 175 171 177 191 191 197 198 199 207 211 222 226 235 249 252 249 252 244 222 213 215 213 204 201 198 195 191 190 189 189
161 166 168 173 171 164 162 171 171 171 177 180 178 183 181 182 186 186 194 195 201 202 205 213 219 223 239 253 261 261 259 232 211 206 213 202 199 201 199 197 195 193 193
162 174 179 175 177 166 169 178 174 173 174 177 182 186 184 181 177 181 188 192 200 200 201 202 207 209 222 231 250 243 189 183 176 174 188 199 202 204 205 203 202 200 198
164 174 185 183 174 170 172 180 172 170 165 173 184 184 181 175 172 173 176 181 197 193 193 191 193 177 181 144 42 43 63 64 99 128 164 188 204 207 206 210 206 202 197
151 165 171 186 169 164 165 168 161 158 155 167 173 169 178 175 158 144 144 152 162 143 130 135 137 122 64 59 40 22 47 59 68 84 97 150 193 209 214 214 211 205 202
122 133 141 143 151 149 153 145 138 125 123 115 94 90 128 126 123 118 114 103 100 87 71 80 75 94 51 9 14 45 22 39 53 78 88 90 123 179 204 212 205 201 199
76 78 101 118 130 143 146 128 114 100 90 74 67 55 61 73 81 89 84 72 72 72 54 54 65 55 55 8 357 31 9 28 58 53 75 89 106 142 154 165 185 196 194
62 64 63 65 87 129 142 135 124 107 87 73 64 56 58 61 62 66 65 58 59 64 52 48 66 56 32 4 30 5 358 19 52 50 71 74 55 53 83 95 129 150 189
52 58 55 60 46 58 90 107 100 100 89 81 64 52 48 56 58 65 62 60 52 53 43 32 36 54 26 18 50 40 342 351 14 31 37 49 41 35 40 51 53 79 107
42 39 50 54 47 41 50 83 90 88 89 77 68 58 46 51 56 58 58 60 54 48 46 37 30 48 56 27 32 93 167 256 324 15 35 38 40 41 31 31 46 51 69
50 41 43 50 52 44 50 90 101 97 90 79 79 74 58 51 52 53 57 61 59 56 51 43 40 37 51 40 16 24 47 66 306 307 357 13 30 40 30 30 41 59 69
57 48 44 52 53 48 51 71 92 93 91 88 79 73 66 55 50 52 57 61 62 59 57 53 48 47 49 51 39 15 19 26 22 21 341 346 4 9 17 20 41 61 74
59 56 49 56 54 52 57 64 80 93 97 93 84 79 71 64 57 52 58 61 61 62 62 60 57 53 53 55 52 45 40 37 14 22 22 350 354 346 9 19 26 38 60